Location: Mascot Post Office (historical)
(40.2645°N, 99.5462°W)
Time: 02:32:15
(UTC+00:00)

Cosmos 1666 - Pass Details

Date: 14 July 2020
Orbit: 497 x 521 km, 82.5° (Epoch: 14 August)

Event Time Altitude Azimuth Distance (km) Brightness Sun altitude
Exits shadow 09:07:35 55° 257° (WSW) 616 2.7 -19.7°
Maximum altitude 09:07:53 57° 279° (W) 602 2.8 -19.7°
Drops below altitude 10° 09:11:37 10° 359° (N) 1,723 6.1 -19.3°
Sets 09:13:46 0° 4° (N) 2,608 7.2 -19.0°
